STARLINK-11736

Satellite information

Favourite Embed

Satellite Type and Status

PAYLOADIN ORBIT

Key statistics

Satellite STARLINK-11736 at a glance.

Uptime

186

Days in orbit

Revolutions

≈ 15.7

Per day

Orbit

LEO

Low Earth Orbit

Inclination

43.0

Latest

Satellite identification and parameters

Extended collection of information and parameters for STARLINK-11736.

Object identification

Identified? True

Debris? False

Object name: STARLINK-11736

International designator: 2025-124A

Object number (NORAD): 64317

Object ID (CCSDS): 64317

Country: UNITED STATES OF AMERICA (US)

Current information (Y/N): Y

RCS size: LARGE

Orbital parameters

Period: 91.663 minutes

Inclination: 42.9992 deg

SMA: 6734.26 km

Apoapsis: 357.447 km

Periapsis: 354.802 km

RAAN: 202.146 deg

Eccentricy: 0.00019635

Argument of periapsis: 56.7236 deg

Mean anomaly: 303.3819 deg

Mean motion: 15.70970273 rev/day

Mean motion (dot): 0.00442235 rev/day2

B* drag term: 0.003252109 1/REarth

Two-line elements (TLE)

Creation date: Dec. 11, 2025, 7:14 p.m.

Reference frame: TEME

Reference center: EARTH

Epoch: Dec. 11, 2025, 7:48 a.m. UTC

TLE line 0: 0 STARLINK-11736

TLE line 1: 1 64317U 25124A 25345.32529003 .00442235 00000-0 32521-2 0 9993

TLE line 2: 2 64317 42.9992 202.1460 0001963 56.7236 303.3819 15.70970273 28931

Live tracking on map

Real-time ground track for satellite STARLINK-11736.

In-orbit conjunctions

There are no conjunctions computed for STARLINK-11736, at the moment. Check back to stay up to date, as we update our databases every day.

Go to all conjunctions

Associated space launch

A batch of 23 satellites for the Starlink mega-constellation - SpaceX's project for space-based Internet communication system.

STARLINK-11736 was lifted into orbit during the mission ‘Falcon 9 Block 5 | Starlink Group 12-24’, on board a Falcon 9 space rocket.

The launch took place on June 10, 2025, 1:05 p.m. from Space Launch Complex 40.

For more information about the launch, click the button.

Launch to space Falcon 9 Block 5 | Starlink Group 12-24
Falcon 9 Block 5 | Starlink Group 12-24

Agency: SpaceX

Status: Launch Successful

Launch date: June 10, 2025, 1:05 p.m. UTC

Rocket: Falcon 9

Launch pad: Space Launch Complex 40

Location: Cape Canaveral SFS, FL, USA

...

Latest news about this satellite

News about space launch
Launch Roundup: ULA to launch Kuiper’s second batch of satellites, SpaceX to launch Axiom crew to ISS

SpaceX will launch Axiom Space’s fourth private crewed mission to the International Space Station (ISS)… The post Launch Roundup: ULA to launch Kuiper’s second batch of satellites, SpaceX to launch Axiom crew to ISS appeared first on NASASpaceFlight.com.

News about space launch
Live coverage: SpaceX to launch 23 Starlink satellites on a Falcon 9 rocket from Cape Canaveral

SpaceX will be attempting to land its 460th booster in the midst of the Starlink 12-24 mission. Teams are targeting liftoff from pad 40 at Cape Canaveral Space Force Station at 9:05 a.m. EDT (1305 UTC).


Newsletter sign-up

Weekly statistics, charts and insights to help you stay on top of the space industry.